Location: Go?cza
(50.3372°N, 19.9313°E)
Time: 23:49:48
(UTC+00:00)

CZ-2C R/B - Pass Details

Date: 10 August 2024
Orbit: 665 x 777 km, 98.4° (Epoch: 16 September)

Event Time Altitude Azimuth Distance (km) Brightness Sun altitude
Rises 02:04:08 0° 17° (NNE) 3,262 6.9 -11.2°
Reaches altitude 10° 02:06:30 10° 22° (NNE) 2,337 6.1 -10.9°
Maximum altitude 02:11:35 55° 100° (E) 939 3.2 -10.3°
Drops below altitude 10° 02:16:37 10° 178° (S) 2,319 4.6 -9.6°
Sets 02:18:58 0° 183° (S) 3,235 5.3 -9.3°
